Columbus, NE

6:15 PM CDT on October 18, 2017 (GMT -0500)
Columbus Municipal

Weather History for KOLU - March, 2014

Change the Weather History Date:

Saturday, March 15, 2014

  Actual Average Record
Temperature  
Mean Temperature 44 °F -  
Max Temperature 60 °F 47 °F 82 °F (2015)
Min Temperature 28 °F 26 °F -1 °F (1949)
Degree Days  
Heating Degree Days 21    
Moisture  
Dew Point 21 °F    
Average Humidity 50    
Maximum Humidity 74    
Minimum Humidity 27    
Precipitation  
Precipitation 0.00 in - - ()
Sea Level Pressure  
Sea Level Pressure 29.94 in    
Wind  
Wind Speed 9 mph (NE)    
Max Wind Speed 33 mph    
Max Gust Speed 40 mph    
Visibility 10 miles    
Events      
Averages and records for this station are not official NWS values.
T = Trace of Precipitation, MM = Missing Value Source: NWS Daily Summary

Daily Weather History Graph

Daily Weather History Graph

Search for Another Location

Airport or City:

Trip Planner

Search our weather history database for the weather conditions in past years. The results will help you decide how hot, cold, wet, or windy it might be!

Date:

Astronomy

Mar. 15, 2014 Rise Set
Actual Time 7:41 AM CDT 7:36 PM CDT
Civil Twilight 7:13 AM CDT 8:03 PM CDT
Nautical Twilight 6:41 AM CDT 8:35 PM CDT
Astronomical Twilight 6:08 AM CDT 9:08 PM CDT
Moon 6:56 PM CDT (3/15) 6:54 AM CDT (3/15)
Length of Visible Light 12h 50m
Length of Day
11h 55m
Waxing Gibbous, 99% of the Moon is Illuminated
Mar 15
Waxing Gibbous
Mar 16
Full
Mar 23
Last Quarter
Mar 30
New
Apr 7
First Quarter

Hourly Weather History & Observations

Time (CDT) Temp. Windchill Dew Point Humidity Pressure Visibility Wind Dir Wind Speed Gust Speed Precip Events Conditions
12:15 AM 32.0 °F 27.5 °F 17.6 °F 55% 29.89 in 10.0 mi East 4.6 mph - N/A   Clear
12:35 AM 30.2 °F 26.7 °F 17.6 °F 60% 29.89 in 10.0 mi East 3.5 mph - N/A   Clear
12:55 AM 30.2 °F 24.3 °F 17.6 °F 60% 29.88 in 10.0 mi East 5.8 mph - N/A   Clear
1:15 AM 30.2 °F 23.4 °F 17.6 °F 60% 29.88 in 10.0 mi East 6.9 mph - N/A   Clear
1:35 AM 30.2 °F 26.7 °F 17.6 °F 60% 29.87 in 10.0 mi East 3.5 mph - N/A   Clear
1:55 AM 30.2 °F - 17.6 °F 60% 29.87 in 10.0 mi Calm Calm - N/A   Clear
2:15 AM 32.0 °F - 17.6 °F 55% 29.87 in 10.0 mi Calm Calm - N/A   Clear
2:35 AM 30.2 °F - 17.6 °F 60% 29.88 in 10.0 mi Calm Calm - N/A   Clear
2:55 AM 30.2 °F 24.3 °F 17.6 °F 60% 29.87 in 10.0 mi East 5.8 mph - N/A   Clear
3:15 AM 32.0 °F 27.5 °F 17.6 °F 55% 29.85 in 10.0 mi ESE 4.6 mph - N/A   Clear
3:35 AM 33.8 °F 28.6 °F 17.6 °F 52% 29.84 in 10.0 mi East 5.8 mph - N/A   Clear
3:55 AM 35.6 °F - 19.4 °F 52% 29.83 in 10.0 mi Calm Calm - N/A   Clear
4:15 AM 33.8 °F - 17.6 °F 52% 29.82 in 10.0 mi Calm Calm - N/A   Clear
4:35 AM 32.0 °F 28.7 °F 17.6 °F 55% 29.81 in 10.0 mi SE 3.5 mph - N/A   Clear
4:55 AM 33.8 °F - 17.6 °F 52% 29.81 in 10.0 mi Calm Calm - N/A   Clear
5:15 AM 35.6 °F - 19.4 °F 52% 29.81 in 10.0 mi Calm Calm - N/A   Clear
5:35 AM 37.4 °F 33.8 °F 19.4 °F 48% 29.80 in 10.0 mi South 4.6 mph - N/A   Clear
5:55 AM 37.4 °F - 19.4 °F 48% 29.80 in 10.0 mi Calm Calm - N/A   Clear
6:15 AM 32.0 °F 28.7 °F 15.8 °F 51% 29.81 in 10.0 mi East 3.5 mph - N/A   Clear
6:35 AM 28.4 °F 23.3 °F 15.8 °F 59% 29.80 in 10.0 mi East 4.6 mph - N/A   Clear
6:55 AM 33.8 °F - 17.6 °F 52% 29.80 in 10.0 mi Calm Calm - N/A   Clear
7:15 AM 28.4 °F 23.3 °F 15.8 °F 59% 29.80 in 10.0 mi East 4.6 mph - N/A   Clear
7:35 AM 28.4 °F 21.2 °F 17.6 °F 64% 29.80 in 10.0 mi East 6.9 mph - N/A   Clear
7:55 AM 30.2 °F 24.3 °F 17.6 °F 60% 29.81 in 10.0 mi East 5.8 mph - N/A   Scattered Clouds
8:15 AM 30.2 °F 24.3 °F 17.6 °F 60% 29.81 in 10.0 mi ESE 5.8 mph - N/A   Partly Cloudy
8:35 AM 33.8 °F 27.0 °F 19.4 °F 56% 29.80 in 10.0 mi East 8.1 mph - N/A   Clear
8:55 AM 33.8 °F 27.7 °F 21.2 °F 60% 29.81 in 10.0 mi East 6.9 mph - N/A   Clear
9:15 AM 37.4 °F 31.4 °F 21.2 °F 52% 29.82 in 10.0 mi East 8.1 mph - N/A   Clear
9:35 AM 39.2 °F 33.6 °F 23.0 °F 52% 29.81 in 10.0 mi East 8.1 mph - N/A   Clear
9:55 AM 44.6 °F 41.4 °F 23.0 °F 43% 29.82 in 10.0 mi ESE 5.8 mph - N/A   Clear
10:15 AM 46.4 °F 42.9 °F 23.0 °F 40% 29.82 in 10.0 mi East 6.9 mph - N/A   Clear
10:35 AM 46.4 °F 44.3 °F 21.2 °F 37% 29.82 in 10.0 mi ESE 4.6 mph - N/A   Clear
10:55 AM 48.2 °F - 23.0 °F 37% 29.82 in 10.0 mi ESE 4.6 mph - N/A   Clear
11:15 AM 51.8 °F - 23.0 °F 33% 29.83 in 10.0 mi East 4.6 mph - N/A   Clear
11:35 AM 53.6 °F - 24.8 °F 33% 29.83 in 10.0 mi SE 4.6 mph - N/A   Clear
11:55 AM 55.4 °F - 24.8 °F 31% 29.83 in 10.0 mi Calm Calm - N/A   Clear
12:15 PM 55.4 °F - 24.8 °F 31% 29.83 in 10.0 mi North 3.5 mph - N/A   Clear
12:35 PM 57.2 °F - 24.8 °F 29% 29.83 in 10.0 mi NNW 5.8 mph - N/A   Clear
12:55 PM 57.2 °F - 24.8 °F 29% 29.83 in 10.0 mi North 6.9 mph - N/A   Clear
1:15 PM 59.0 °F - 24.8 °F 27% 29.83 in 10.0 mi NE 13.8 mph - N/A   Clear
1:35 PM 60.8 °F - 26.6 °F 27% 29.84 in 10.0 mi NNE 13.8 mph 20.7 mph N/A   Clear
1:55 PM 60.8 °F - 26.6 °F 27% 29.85 in 10.0 mi NNE 16.1 mph 21.9 mph N/A   Clear
2:15 PM 59.0 °F - 26.6 °F 29% 29.85 in 10.0 mi NNE 24.2 mph 28.8 mph N/A   Clear
2:35 PM 59.0 °F - 26.6 °F 29% 29.86 in 10.0 mi NNE 23.0 mph 31.1 mph N/A   Clear
2:55 PM 57.2 °F - 26.6 °F 31% 29.86 in 10.0 mi NNE 29.9 mph 33.4 mph N/A   Clear
3:15 PM 53.6 °F - 26.6 °F 35% 29.89 in 10.0 mi NNE 31.1 mph 39.1 mph N/A   Clear
3:35 PM 53.6 °F - 24.8 °F 33% 29.90 in 10.0 mi NNE 29.9 mph 36.8 mph N/A   Clear
3:55 PM 51.8 °F - 24.8 °F 35% 29.92 in 10.0 mi NNE 33.4 mph 40.3 mph N/A   Clear
4:15 PM 51.8 °F - 24.8 °F 35% 29.94 in 10.0 mi NNE 27.6 mph 36.8 mph N/A   Clear
4:35 PM 50.0 °F - 23.0 °F 35% 29.95 in 10.0 mi NNE 26.5 mph 36.8 mph N/A   Clear
4:55 PM 48.2 °F - 23.0 °F 37% 29.96 in 10.0 mi NNE 29.9 mph 35.7 mph N/A   Clear
5:15 PM 46.4 °F 37.7 °F 21.2 °F 37% 29.97 in 10.0 mi NNE 26.5 mph 34.5 mph N/A   Clear
5:35 PM 44.6 °F 35.7 °F 21.2 °F 39% 30.00 in 10.0 mi NNE 24.2 mph - N/A   Clear
5:55 PM 44.6 °F 35.1 °F 21.2 °F 39% 30.01 in 10.0 mi NNE 27.6 mph 34.5 mph N/A   Clear
6:15 PM 44.6 °F 35.3 °F 21.2 °F 39% 30.03 in 10.0 mi NE 26.5 mph 32.2 mph N/A   Clear
6:35 PM 41.0 °F 30.2 °F 21.2 °F 45% 30.06 in 10.0 mi NNE 27.6 mph 36.8 mph N/A   Clear
6:55 PM 39.2 °F 28.3 °F 21.2 °F 49% 30.08 in 10.0 mi NNE 25.3 mph 34.5 mph N/A   Clear
7:15 PM 37.4 °F 25.6 °F 23.0 °F 56% 30.11 in 10.0 mi NNE 26.5 mph 33.4 mph N/A   Scattered Clouds
7:35 PM 35.6 °F 23.7 °F 23.0 °F 60% 30.12 in 10.0 mi NNE 24.2 mph 36.8 mph N/A   Mostly Cloudy
7:55 PM 35.6 °F 24.0 °F 21.2 °F 56% 30.14 in 10.0 mi NNE 23.0 mph 34.5 mph N/A   Mostly Cloudy
8:15 PM 33.8 °F 21.6 °F 21.2 °F 60% 30.16 in 10.0 mi NNE 23.0 mph 34.5 mph N/A   Scattered Clouds
8:35 PM 33.8 °F 21.0 °F 21.2 °F 60% 30.17 in 10.0 mi NNE 25.3 mph 34.5 mph N/A   Mostly Cloudy
8:55 PM 33.8 °F 21.9 °F 21.2 °F 60% 30.20 in 10.0 mi NNE 21.9 mph 34.5 mph N/A   Overcast
9:15 PM 32.0 °F 18.6 °F 21.2 °F 64% 30.22 in 10.0 mi NNE 25.3 mph 32.2 mph N/A   Overcast
9:35 PM 30.2 °F 17.4 °F 21.2 °F 69% 30.23 in 10.0 mi NNE 20.7 mph 27.6 mph N/A   Overcast
9:55 PM 30.2 °F 16.8 °F 21.2 °F 69% 30.23 in 10.0 mi NNE 23.0 mph 28.8 mph N/A   Mostly Cloudy
10:15 PM 30.2 °F 15.9 °F 21.2 °F 69% 30.23 in 10.0 mi NNE 26.5 mph 34.5 mph N/A   Scattered Clouds
10:35 PM 30.2 °F 18.1 °F 21.2 °F 69% 30.26 in 10.0 mi NNE 18.4 mph 25.3 mph N/A   Mostly Cloudy
10:55 PM 30.2 °F 17.1 °F 21.2 °F 69% 30.26 in 10.0 mi NNE 21.9 mph 26.5 mph N/A   Overcast
11:15 PM 28.4 °F 15.8 °F 21.2 °F 74% 30.26 in 10.0 mi North 18.4 mph 26.5 mph N/A   Overcast
11:35 PM 28.4 °F 14.7 °F 19.4 °F 69% 30.27 in 10.0 mi North 21.9 mph 27.6 mph N/A   Overcast
11:55 PM 28.4 °F 15.1 °F 19.4 °F 69% 30.28 in 10.0 mi North 20.7 mph 27.6 mph N/A   Overcast